Simultaneous Nadir Overpasses (SNOs) Predictions

Prediction of SNOs over PacNW region [( 10.00, 139.50) to ( 22.70, 165.60)] between AQUA and NPP Satellites:

Table of predicted SNOs over PacNW region for the next 30.0 days since TLE Epoch: 10/29/2016
Index Date (AQUA) Time (AQUA) AQUA Lat,Lon Date (NPP) Time (NPP) NPP Lat,Lon Distance(km) Time Diff (sec)
1 10/31/2016 03:31:19 22.65, 147.51 10/31/2016 03:27:52 22.32, 145.81 178.23 207
2 11/05/2016 15:58:56 22.63, 147.47 11/05/2016 16:02:25 23.38, 144.53 312.57 209
3 11/08/2016 02:41:53 22.66, 159.86 11/08/2016 02:38:24 26.81, 157.33 527.81 209
4 11/13/2016 15:09:29 22.61, 159.83 11/13/2016 15:11:43 23.23, 157.16 282.20 134
5 11/16/2016 03:31:19 22.67, 147.51 11/16/2016 03:27:53 22.30, 145.78 182.49 206
6 11/21/2016 15:58:53 22.59, 147.47 11/21/2016 16:02:21 23.63, 144.55 320.41 208
7 11/24/2016
